TRA32J EHRD-LPPT

Flight info

Callsign TRA32J
Flight time 2h 30m
Altitude 35000
Route WOODY N872 CIV DCT KOVIN DCT NIDUV DCT KIHVI DCT PON DCT DITAL DCT GODIX DCT DIDAK DCT KURIS DCT TERPO DCT ERIGA DCT FUJTI DCT ATLEN/N0459F370 DCT ABUPI DCT XAMAX
Aircraft B739/M-SDE2E3FGHIRWXY/LB1

Departure

Time 2026-04-28 13:18
Airport Rotterdam The Hague Airport (EHRD)

Arrival

Time 2026-04-28 15:49
Airport Lisbon Humberto Delgado Airport (LPPT)
Time Latitude Longitude Altitude Speed Heading
2026-04-28 12:43 51.94914 4.43532 -7 ft 0 kts 327°
2026-04-28 13:09 51.94915 4.43530 -7 ft 1 kts 327°
2026-04-28 13:10 51.94932 4.43515 -7 ft 5 kts 335°
2026-04-28 13:10 51.94973 4.43552 -7 ft 9 kts 52°
2026-04-28 13:10 51.95022 4.43643 -7 ft 12 kts 13°
2026-04-28 13:10 51.95092 4.43592 -7 ft 11 kts 327°
2026-04-28 13:11 51.95159 4.43521 -7 ft 11 kts 327°
2026-04-28 13:11 51.95223 4.43453 -6 ft 11 kts 326°
2026-04-28 13:11 51.95217 4.43345 -6 ft 11 kts 238°
2026-04-28 13:11 51.95178 4.43244 -6 ft 10 kts 237°
2026-04-28 13:12 51.95142 4.43144 -6 ft 10 kts 243°
2026-04-28 13:12 51.95114 4.43044 -6 ft 8 kts 250°
2026-04-28 13:12 51.95112 4.43034 -6 ft 0 kts 252°
2026-04-28 13:12 51.95111 4.43032 -6 ft 0 kts 253°
2026-04-28 13:13 51.95111 4.43028 -6 ft 0 kts 253°
2026-04-28 13:13 51.95110 4.43024 -6 ft 0 kts 255°
2026-04-28 13:13 51.95109 4.43019 -6 ft 0 kts 256°
2026-04-28 13:13 51.95109 4.43018 -6 ft 0 kts 257°
2026-04-28 13:14 51.95109 4.43017 -6 ft 0 kts 257°
2026-04-28 13:14 51.95109 4.43014 -6 ft 0 kts 258°
2026-04-28 13:14 51.95108 4.43010 -6 ft 0 kts 259°
2026-04-28 13:14 51.95108 4.43005 -6 ft 1 kts 260°
2026-04-28 13:15 51.95107 4.42999 -6 ft 1 kts 262°
2026-04-28 13:15 51.95107 4.42992 -6 ft 1 kts 264°
2026-04-28 13:15 51.95107 4.42983 -6 ft 0 kts 266°
2026-04-28 13:16 51.95108 4.42980 -6 ft 2 kts 283°
2026-04-28 13:16 51.95117 4.42951 -6 ft 7 kts 304°
2026-04-28 13:16 51.95173 4.42880 -6 ft 10 kts 326°
2026-04-28 13:17 51.95229 4.42882 -6 ft 9 kts 47°
2026-04-28 13:17 51.95265 4.42967 -6 ft 11 kts 57°
2026-04-28 13:17 51.95383 4.43259 -6 ft 61 kts 57°
2026-04-28 13:17 51.95731 4.44125 -6 ft 120 kts 57°
2026-04-28 13:18 51.96276 4.45468 15 ft 162 kts 56°
2026-04-28 13:18 51.96910 4.47073 397 ft 174 kts 56°
2026-04-28 13:18 51.97609 4.48755 877 ft 185 kts 57°
2026-04-28 13:18 51.98229 4.50616 1439 ft 188 kts 72°
2026-04-28 13:19 51.98148 4.52673 2048 ft 196 kts 117°
2026-04-28 13:19 51.97031 4.54052 2294 ft 223 kts 162°
2026-04-28 13:19 51.95407 4.54143 2513 ft 242 kts 180°
2026-04-28 13:19 51.93667 4.53869 2734 ft 263 kts 182°
2026-04-28 13:20 51.91802 4.53473 3225 ft 273 kts 184°
2026-04-28 13:20 51.89931 4.52994 4032 ft 271 kts 185°
2026-04-28 13:20 51.88071 4.52463 4760 ft 273 kts 186°
2026-04-28 13:20 51.86196 4.51897 5430 ft 274 kts 187°
2026-04-28 13:21 51.84316 4.51301 6124 ft 276 kts 187°
2026-04-28 13:21 51.82427 4.50689 6766 ft 278 kts 187°
2026-04-28 13:21 51.80519 4.50061 7386 ft 281 kts 187°
2026-04-28 13:21 51.78611 4.49424 8030 ft 283 kts 188°
2026-04-28 13:22 51.76673 4.48772 8645 ft 286 kts 188°
2026-04-28 13:22 51.74714 4.48114 9238 ft 289 kts 188°
2026-04-28 13:22 51.72739 4.47447 9867 ft 291 kts 188°
2026-04-28 13:22 51.70755 4.46776 10518 ft 292 kts 188°
2026-04-28 13:23 51.68705 4.46081 10728 ft 310 kts 189°
2026-04-28 13:23 51.66532 4.45347 10889 ft 328 kts 189°
2026-04-28 13:23 51.64234 4.44570 11035 ft 346 kts 189°
2026-04-28 13:23 51.61827 4.43754 11176 ft 362 kts 189°
2026-04-28 13:24 51.59316 4.42902 11486 ft 372 kts 190°
2026-04-28 13:24 51.56772 4.42042 12010 ft 375 kts 190°
2026-04-28 13:24 51.54213 4.41178 12600 ft 376 kts 190°
2026-04-28 13:24 51.51650 4.40314 13145 ft 378 kts 190°
2026-04-28 13:25 51.49060 4.39441 13657 ft 382 kts 190°
2026-04-28 13:25 51.46448 4.38555 14194 ft 384 kts 190°
2026-04-28 13:25 51.43824 4.37679 14711 ft 386 kts 190°
2026-04-28 13:25 51.41179 4.36764 15167 ft 390 kts 193°
2026-04-28 13:26 51.38618 4.35287 15616 ft 394 kts 204°
2026-04-28 13:26 51.36149 4.33349 16107 ft 396 kts 205°
2026-04-28 13:26 51.33693 4.31451 16561 ft 398 kts 204°
2026-04-28 13:26 51.31178 4.29553 16995 ft 401 kts 204°
2026-04-28 13:27 51.28653 4.27643 17440 ft 403 kts 204°
2026-04-28 13:27 51.26115 4.25710 17874 ft 405 kts 205°
2026-04-28 13:27 51.23566 4.23767 18283 ft 407 kts 205°
2026-04-28 13:27 51.21001 4.21815 18705 ft 409 kts 205°
2026-04-28 13:28 51.18434 4.19867 19113 ft 411 kts 205°
2026-04-28 13:28 51.15835 4.17945 19523 ft 413 kts 202°
2026-04-28 13:28 51.13140 4.16318 19900 ft 415 kts 198°
2026-04-28 13:28 51.10391 4.14853 20322 ft 416 kts 197°
2026-04-28 13:29 51.07638 4.13431 20738 ft 418 kts 197°
2026-04-28 13:29 51.04870 4.11988 21098 ft 420 kts 198°
2026-04-28 13:29 51.02089 4.10509 21434 ft 422 kts 198°
2026-04-28 13:29 50.99346 4.09028 21794 ft 424 kts 198°
2026-04-28 13:30 50.96538 4.07499 22170 ft 425 kts 199°
2026-04-28 13:30 50.93734 4.05970 22557 ft 426 kts 199°
2026-04-28 13:30 50.90911 4.04434 22878 ft 428 kts 199°
2026-04-28 13:30 50.88088 4.02900 23212 ft 430 kts 199°
2026-04-28 13:31 50.82478 3.99445 23850 ft 433 kts 202°
2026-04-28 13:31 50.79692 3.97615 24172 ft 434 kts 202°
2026-04-28 13:31 50.76903 3.95784 24529 ft 435 kts 202°
2026-04-28 13:32 50.74097 3.93958 24819 ft 436 kts 202°
2026-04-28 13:32 50.71279 3.92143 25101 ft 438 kts 202°
2026-04-28 13:32 50.68494 3.90362 25361 ft 440 kts 202°
2026-04-28 13:32 50.65646 3.88546 25683 ft 440 kts 202°
2026-04-28 13:33 50.62805 3.86738 25966 ft 442 kts 202°
2026-04-28 13:33 50.59947 3.84920 26229 ft 443 kts 202°
2026-04-28 13:33 50.57080 3.83097 26488 ft 445 kts 203°
2026-04-28 13:33 50.54225 3.81215 26743 ft 446 kts 204°
2026-04-28 13:34 50.51378 3.79271 27033 ft 446 kts 205°
2026-04-28 13:34 50.48536 3.77311 27282 ft 448 kts 205°
2026-04-28 13:34 50.45671 3.75333 27496 ft 449 kts 205°
2026-04-28 13:34 50.42798 3.73358 27729 ft 450 kts 205°
2026-04-28 13:35 50.39930 3.71400 28074 ft 449 kts 205°
2026-04-28 13:35 50.37079 3.69458 28446 ft 446 kts 205°
2026-04-28 13:35 50.34230 3.67523 28776 ft 445 kts 205°
2026-04-28 13:35 50.31389 3.65598 29081 ft 444 kts 205°
2026-04-28 13:36 50.28557 3.63682 29383 ft 443 kts 205°
2026-04-28 13:36 50.25736 3.61777 29708 ft 442 kts 205°
2026-04-28 13:36 50.22921 3.59878 30012 ft 441 kts 205°
2026-04-28 13:36 50.20101 3.57979 30289 ft 440 kts 205°
2026-04-28 13:37 50.17291 3.56088 30532 ft 440 kts 205°
2026-04-28 13:37 50.14478 3.54197 30732 ft 441 kts 205°
2026-04-28 13:37 50.11664 3.52308 30986 ft 440 kts 205°
2026-04-28 13:37 50.08847 3.50420 31240 ft 439 kts 205°
2026-04-28 13:38 50.06037 3.48538 31449 ft 440 kts 205°
2026-04-28 13:38 50.03225 3.46657 31631 ft 440 kts 205°
2026-04-28 13:38 50.00410 3.44777 31861 ft 440 kts 205°
2026-04-28 13:38 49.97604 3.42906 32098 ft 438 kts 205°
2026-04-28 13:39 49.94824 3.41057 32566 ft 431 kts 205°
2026-04-28 13:39 49.92075 3.39231 32865 ft 429 kts 205°
2026-04-28 13:39 49.86588 3.35583 33010 ft 434 kts 205°
2026-04-28 13:40 49.83804 3.33737 33170 ft 434 kts 205°
2026-04-28 13:40 49.81030 3.31901 33387 ft 432 kts 205°
2026-04-28 13:40 49.78264 3.30071 33599 ft 431 kts 205°
2026-04-28 13:40 49.75506 3.28252 33756 ft 431 kts 205°
2026-04-28 13:41 49.72737 3.26427 33861 ft 432 kts 205°
2026-04-28 13:41 49.69973 3.24606 33993 ft 432 kts 205°
2026-04-28 13:41 49.67213 3.22791 34149 ft 431 kts 205°
2026-04-28 13:41 49.64449 3.20975 34233 ft 433 kts 205°
2026-04-28 13:42 49.58892 3.17328 34477 ft 433 kts 205°
2026-04-28 13:42 49.56121 3.15514 34640 ft 432 kts 205°
2026-04-28 13:42 49.53355 3.13705 34675 ft 434 kts 205°
2026-04-28 13:43 49.50704 3.11504 34698 ft 434 kts 217°
2026-04-28 13:43 49.48412 3.08514 34844 ft 431 kts 226°
2026-04-28 13:43 49.46465 3.05022 34985 ft 430 kts 236°
2026-04-28 13:43 49.44935 3.01074 35094 ft 430 kts 240°
2026-04-28 13:44 49.42030 2.93041 35107 ft 431 kts 240°
2026-04-28 13:44 49.39068 2.84997 35100 ft 433 kts 239°
2026-04-28 13:45 49.36081 2.77012 35095 ft 434 kts 239°
2026-04-28 13:45 49.33078 2.68897 35085 ft 436 kts 241°
2026-04-28 13:46 49.30227 2.60748 35079 ft 436 kts 241°
2026-04-28 13:46 49.27342 2.52493 35083 ft 437 kts 241°
2026-04-28 13:47 49.24470 2.44362 35079 ft 437 kts 241°
2026-04-28 13:47 49.21571 2.36198 35087 ft 436 kts 241°
2026-04-28 13:48 49.18652 2.28052 35078 ft 436 kts 240°
2026-04-28 13:48 49.15672 2.19991 35081 ft 435 kts 240°
2026-04-28 13:49 49.12690 2.11947 35077 ft 435 kts 240°
2026-04-28 13:49 49.09720 2.03917 35075 ft 434 kts 241°
2026-04-28 13:50 49.07133 1.95607 35073 ft 433 kts 245°
2026-04-28 13:50 49.04654 1.87230 35081 ft 433 kts 245°
2026-04-28 13:51 49.02156 1.78864 35075 ft 434 kts 244°
2026-04-28 13:51 48.99633 1.70502 35080 ft 435 kts 244°
2026-04-28 13:52 48.97096 1.62142 35091 ft 435 kts 244°
2026-04-28 13:52 48.94550 1.53786 35096 ft 435 kts 244°
2026-04-28 13:53 48.92013 1.45482 35096 ft 436 kts 244°
2026-04-28 13:53 48.89437 1.37079 35086 ft 436 kts 244°
2026-04-28 13:54 48.86868 1.28731 35106 ft 436 kts 244°
2026-04-28 13:54 48.84314 1.20454 35101 ft 435 kts 244°
2026-04-28 13:55 48.81741 1.12146 35102 ft 435 kts 244°
2026-04-28 13:55 48.79162 1.03847 35101 ft 435 kts 244°
2026-04-28 13:56 48.76579 0.95551 35097 ft 434 kts 244°
2026-04-28 13:56 48.73953 0.87323 35098 ft 434 kts 240°
2026-04-28 13:57 48.70839 0.79498 35099 ft 433 kts 238°
2026-04-28 13:57 48.67622 0.71775 35090 ft 434 kts 238°
2026-04-28 13:58 48.64448 0.64065 35096 ft 433 kts 238°
2026-04-28 13:58 48.61262 0.56261 35093 ft 434 kts 238°
2026-04-28 13:59 48.58117 0.48552 35097 ft 433 kts 238°
2026-04-28 13:59 48.54956 0.40826 35086 ft 433 kts 238°
2026-04-28 14:00 48.52309 0.34380 35085 ft 433 kts 238°
2026-04-28 14:00 48.49132 0.26661 35077 ft 432 kts 238°
2026-04-28 14:01 48.45960 0.18978 35070 ft 431 kts 238°
2026-04-28 14:01 48.42784 0.11303 35073 ft 430 kts 238°
2026-04-28 14:02 48.39617 0.03670 35080 ft 429 kts 238°
2026-04-28 14:02 48.36455 -0.03920 35080 ft 428 kts 237°
2026-04-28 14:03 48.32962 -0.11149 35061 ft 431 kts 233°
2026-04-28 14:03 48.29304 -0.18380 35086 ft 433 kts 234°
2026-04-28 14:04 48.25693 -0.25602 35082 ft 436 kts 234°
2026-04-28 14:04 48.22009 -0.32868 35089 ft 438 kts 233°
2026-04-28 14:05 48.18292 -0.40143 35078 ft 441 kts 233°
2026-04-28 14:05 48.14543 -0.47451 35072 ft 443 kts 233°
2026-04-28 14:06 48.10776 -0.54766 35083 ft 445 kts 233°
2026-04-28 14:06 48.06990 -0.62119 35083 ft 447 kts 233°
2026-04-28 14:07 48.03183 -0.69492 35084 ft 449 kts 233°
2026-04-28 14:07 47.99374 -0.76852 35077 ft 451 kts 233°
2026-04-28 14:08 47.95552 -0.84219 35071 ft 442 kts 233°
2026-04-28 14:08 47.91839 -0.91350 35066 ft 431 kts 233°
2026-04-28 14:09 47.88162 -0.98400 35067 ft 430 kts 233°
2026-04-28 14:09 47.84482 -1.05437 35085 ft 432 kts 233°
2026-04-28 14:10 47.80796 -1.12469 35081 ft 434 kts 233°
2026-04-28 14:10 47.77063 -1.19570 35075 ft 436 kts 233°
2026-04-28 14:11 47.73313 -1.26684 35079 ft 439 kts 233°
2026-04-28 14:11 47.69534 -1.33835 35069 ft 441 kts 233°
2026-04-28 14:12 47.65739 -1.41000 35063 ft 442 kts 233°
2026-04-28 14:12 47.61921 -1.48188 35062 ft 443 kts 233°
2026-04-28 14:13 47.58009 -1.55260 35063 ft 444 kts 230°
2026-04-28 14:13 47.53853 -1.62032 35055 ft 444 kts 229°
2026-04-28 14:14 47.49705 -1.68738 35049 ft 444 kts 229°
2026-04-28 14:14 47.45563 -1.75501 35036 ft 443 kts 229°
2026-04-28 14:15 47.41434 -1.82254 35047 ft 441 kts 229°
2026-04-28 14:15 47.37312 -1.88942 35043 ft 440 kts 229°
2026-04-28 14:16 47.32776 -1.94958 35040 ft 441 kts 213°
2026-04-28 14:16 47.27504 -1.99602 35041 ft 440 kts 212°
2026-04-28 14:17 47.22253 -2.04205 35048 ft 438 kts 213°
2026-04-28 14:17 47.17070 -2.08799 35052 ft 437 kts 213°
2026-04-28 14:18 47.11870 -2.13424 35045 ft 436 kts 213°
2026-04-28 14:18 47.06686 -2.18026 35038 ft 435 kts 213°
2026-04-28 14:19 47.01506 -2.22610 35044 ft 434 kts 213°
2026-04-28 14:19 46.96349 -2.27196 35047 ft 433 kts 214°
2026-04-28 14:20 46.91201 -2.31730 35046 ft 432 kts 214°
2026-04-28 14:20 46.86059 -2.36245 35048 ft 430 kts 214°
2026-04-28 14:21 46.80925 -2.40752 35052 ft 429 kts 214°
2026-04-28 14:21 46.75812 -2.45230 35045 ft 428 kts 214°
2026-04-28 14:22 46.70745 -2.49666 35041 ft 427 kts 214°
2026-04-28 14:22 46.65660 -2.54111 35042 ft 426 kts 214°
2026-04-28 14:23 46.60579 -2.58538 35038 ft 425 kts 214°
2026-04-28 14:23 46.55503 -2.62951 35034 ft 424 kts 214°
2026-04-28 14:24 46.50433 -2.67348 35029 ft 424 kts 214°
2026-04-28 14:24 46.45368 -2.71733 35028 ft 424 kts 214°
2026-04-28 14:25 46.40300 -2.76110 35035 ft 424 kts 214°
2026-04-28 14:25 46.35226 -2.80483 35026 ft 424 kts 214°
2026-04-28 14:26 46.30152 -2.84849 35030 ft 424 kts 214°
2026-04-28 14:26 46.25238 -2.89435 35024 ft 421 kts 223°
2026-04-28 14:27 46.20786 -2.94922 35027 ft 421 kts 223°
2026-04-28 14:27 46.16328 -3.00415 35029 ft 421 kts 223°
2026-04-28 14:28 46.11862 -3.05874 35031 ft 420 kts 223°
2026-04-28 14:28 46.07401 -3.11299 35040 ft 420 kts 223°
2026-04-28 14:29 46.02934 -3.16717 35038 ft 420 kts 223°
2026-04-28 14:29 45.98454 -3.22137 35040 ft 421 kts 223°
2026-04-28 14:30 45.93979 -3.27540 35032 ft 420 kts 223°
2026-04-28 14:30 45.89517 -3.32909 35035 ft 418 kts 223°
2026-04-28 14:31 45.85067 -3.38260 35035 ft 417 kts 223°
2026-04-28 14:31 45.80619 -3.43597 35025 ft 416 kts 223°
2026-04-28 14:32 45.76185 -3.48905 35040 ft 415 kts 223°
2026-04-28 14:32 45.71754 -3.54197 35048 ft 415 kts 223°
2026-04-28 14:33 45.67323 -3.59480 35048 ft 415 kts 223°
2026-04-28 14:33 45.62882 -3.64760 35047 ft 415 kts 223°
2026-04-28 14:34 45.56226 -3.72654 35042 ft 417 kts 223°
2026-04-28 14:35 45.51758 -3.77939 35037 ft 418 kts 223°
2026-04-28 14:35 45.47285 -3.83218 35037 ft 418 kts 222°
2026-04-28 14:36 45.42793 -3.88509 35040 ft 418 kts 222°
2026-04-28 14:36 45.38302 -3.93789 35039 ft 419 kts 222°
2026-04-28 14:37 45.33799 -3.99072 35034 ft 420 kts 222°
2026-04-28 14:37 45.29291 -4.04347 35266 ft 420 kts 222°
2026-04-28 14:37 45.27035 -4.06982 35397 ft 419 kts 222°
2026-04-28 14:38 45.24784 -4.09610 35503 ft 420 kts 222°
2026-04-28 14:38 45.20262 -4.14880 35677 ft 421 kts 222°
2026-04-28 14:38 45.17997 -4.17516 35802 ft 421 kts 222°
2026-04-28 14:39 45.15733 -4.20147 35881 ft 422 kts 221°
2026-04-28 14:39 45.11174 -4.25434 36036 ft 423 kts 221°
2026-04-28 14:40 45.06617 -4.30713 36211 ft 424 kts 221°
2026-04-28 14:40 45.02048 -4.35991 36357 ft 425 kts 221°
2026-04-28 14:41 44.97469 -4.41271 36516 ft 425 kts 221°
2026-04-28 14:41 44.92895 -4.46534 36797 ft 421 kts 221°
2026-04-28 14:41 44.90637 -4.49129 37016 ft 417 kts 221°
2026-04-28 14:42 44.88381 -4.51717 36986 ft 418 kts 221°
2026-04-28 14:42 44.83869 -4.56888 37005 ft 417 kts 221°
2026-04-28 14:43 44.79398 -4.61999 37005 ft 416 kts 221°
2026-04-28 14:43 44.74904 -4.67127 37000 ft 416 kts 221°
2026-04-28 14:44 44.70412 -4.72244 37000 ft 415 kts 221°
2026-04-28 14:44 44.65931 -4.77336 36996 ft 415 kts 221°
2026-04-28 14:45 44.61443 -4.82428 37003 ft 415 kts 221°
2026-04-28 14:45 44.57704 -4.86662 37001 ft 415 kts 221°
2026-04-28 14:46 44.53209 -4.91741 37002 ft 416 kts 220°
2026-04-28 14:46 44.48580 -4.96639 36999 ft 418 kts 215°
2026-04-28 14:47 44.43630 -5.00953 36994 ft 420 kts 214°
2026-04-28 14:47 44.38639 -5.05220 37002 ft 421 kts 214°
2026-04-28 14:48 44.33646 -5.09512 36992 ft 421 kts 213°
2026-04-28 14:48 44.28656 -5.13825 36990 ft 422 kts 214°
2026-04-28 14:49 44.23670 -5.18148 36993 ft 422 kts 214°
2026-04-28 14:49 44.18680 -5.22481 36987 ft 422 kts 214°
2026-04-28 14:50 44.13695 -5.26797 36989 ft 422 kts 213°
2026-04-28 14:50 44.08745 -5.31072 36992 ft 421 kts 213°
2026-04-28 14:51 44.03767 -5.35362 36989 ft 420 kts 213°
2026-04-28 14:51 43.98793 -5.39636 36990 ft 420 kts 213°
2026-04-28 14:52 43.93820 -5.43902 36989 ft 420 kts 213°
2026-04-28 14:52 43.88859 -5.48149 36988 ft 419 kts 213°
2026-04-28 14:53 43.83905 -5.52387 36992 ft 418 kts 213°
2026-04-28 14:53 43.78954 -5.56616 36988 ft 418 kts 213°
2026-04-28 14:54 43.73997 -5.60832 36991 ft 419 kts 213°
2026-04-28 14:54 43.69030 -5.65051 36991 ft 419 kts 213°
2026-04-28 14:55 43.64056 -5.69269 36993 ft 420 kts 213°
2026-04-28 14:55 43.59094 -5.73467 36991 ft 421 kts 213°
2026-04-28 14:56 43.54094 -5.77689 36993 ft 422 kts 213°
2026-04-28 14:56 43.49083 -5.81911 36994 ft 422 kts 213°
2026-04-28 14:57 43.44062 -5.86132 36993 ft 423 kts 213°
2026-04-28 14:57 43.39035 -5.90350 36984 ft 423 kts 213°
2026-04-28 14:58 43.34031 -5.94543 36983 ft 423 kts 213°
2026-04-28 14:58 43.29009 -5.98742 36993 ft 422 kts 213°
2026-04-28 14:59 43.23997 -6.02924 36980 ft 421 kts 213°
2026-04-28 14:59 43.18981 -6.07102 36986 ft 421 kts 213°
2026-04-28 15:00 43.13962 -6.11274 36978 ft 422 kts 212°
2026-04-28 15:00 43.08966 -6.15418 36981 ft 423 kts 212°
2026-04-28 15:01 43.03924 -6.19595 36972 ft 424 kts 212°
2026-04-28 15:01 42.98856 -6.23781 36968 ft 426 kts 212°
2026-04-28 15:02 42.93775 -6.27971 36964 ft 427 kts 212°
2026-04-28 15:02 42.88685 -6.32161 36955 ft 427 kts 212°
2026-04-28 15:03 42.83625 -6.36319 36955 ft 427 kts 212°
2026-04-28 15:03 42.78531 -6.40493 36947 ft 427 kts 212°
2026-04-28 15:04 42.73440 -6.44659 36946 ft 427 kts 212°
2026-04-28 15:04 42.68347 -6.48820 36938 ft 427 kts 212°
2026-04-28 15:05 42.63248 -6.52977 36940 ft 427 kts 212°
2026-04-28 15:05 42.58158 -6.57118 36935 ft 426 kts 212°
2026-04-28 15:06 42.53074 -6.61243 36909 ft 426 kts 212°
2026-04-28 15:06 42.47996 -6.65383 36929 ft 425 kts 212°
2026-04-28 15:07 42.42901 -6.69483 36923 ft 426 kts 212°
2026-04-28 15:07 42.37806 -6.73592 36912 ft 425 kts 212°
2026-04-28 15:08 42.32770 -6.77646 36918 ft 425 kts 212°
2026-04-28 15:08 42.27692 -6.81734 36912 ft 424 kts 212°
2026-04-28 15:09 42.22613 -6.85817 36903 ft 424 kts 212°
2026-04-28 15:09 42.17535 -6.89889 36903 ft 425 kts 211°
2026-04-28 15:10 42.12455 -6.93951 36909 ft 425 kts 211°
2026-04-28 15:10 42.07366 -6.98013 36913 ft 425 kts 211°
2026-04-28 15:11 42.02282 -7.02064 36899 ft 425 kts 211°
2026-04-28 15:11 41.97181 -7.06116 36896 ft 426 kts 211°
2026-04-28 15:12 41.92100 -7.10145 36889 ft 426 kts 211°
2026-04-28 15:12 41.86992 -7.14193 36887 ft 426 kts 211°
2026-04-28 15:13 41.81886 -7.18236 36893 ft 426 kts 211°
2026-04-28 15:13 41.76781 -7.22269 36889 ft 426 kts 211°
2026-04-28 15:14 41.71668 -7.26285 36886 ft 426 kts 211°
2026-04-28 15:14 41.66539 -7.30268 36879 ft 426 kts 210°
2026-04-28 15:15 41.61402 -7.34245 36890 ft 425 kts 211°
2026-04-28 15:15 41.56326 -7.38173 36880 ft 424 kts 211°
2026-04-28 15:16 41.51221 -7.42120 36877 ft 424 kts 211°
2026-04-28 15:16 41.46121 -7.46058 36878 ft 423 kts 210°
2026-04-28 15:17 41.41027 -7.49983 36877 ft 423 kts 210°
2026-04-28 15:17 41.35930 -7.53903 36884 ft 423 kts 210°
2026-04-28 15:18 41.30825 -7.57823 36881 ft 423 kts 210°
2026-04-28 15:18 41.25719 -7.61735 36884 ft 423 kts 210°
2026-04-28 15:19 41.20613 -7.65639 36872 ft 424 kts 210°
2026-04-28 15:19 41.15489 -7.69551 36875 ft 424 kts 210°
2026-04-28 15:20 41.10396 -7.73435 36868 ft 425 kts 210°
2026-04-28 15:20 41.05258 -7.77343 36871 ft 425 kts 210°
2026-04-28 15:21 41.00123 -7.81227 36867 ft 425 kts 210°
2026-04-28 15:21 40.94989 -7.85113 36862 ft 425 kts 210°
2026-04-28 15:22 40.89862 -7.88993 36863 ft 425 kts 210°
2026-04-28 15:22 40.84730 -7.92872 36860 ft 425 kts 210°
2026-04-28 15:23 40.79596 -7.96744 36860 ft 424 kts 210°
2026-04-28 15:23 40.74473 -8.00598 36858 ft 424 kts 210°
2026-04-28 15:24 40.69339 -8.04456 36859 ft 425 kts 209°
2026-04-28 15:24 40.64231 -8.08287 36861 ft 425 kts 209°
2026-04-28 15:25 40.59083 -8.12142 36867 ft 426 kts 209°
2026-04-28 15:25 40.53926 -8.15995 36860 ft 426 kts 209°
2026-04-28 15:26 40.48747 -8.19857 36496 ft 433 kts 209°
2026-04-28 15:26 40.46115 -8.21817 35923 ft 435 kts 209°
2026-04-28 15:26 40.43480 -8.23780 35144 ft 437 kts 209°
2026-04-28 15:26 40.40831 -8.25751 34371 ft 438 kts 209°
2026-04-28 15:27 40.38170 -8.27727 33549 ft 440 kts 209°
2026-04-28 15:27 40.35494 -8.29714 32699 ft 442 kts 209°
2026-04-28 15:27 40.32809 -8.31705 31834 ft 445 kts 209°
2026-04-28 15:27 40.30108 -8.33707 30935 ft 447 kts 209°
2026-04-28 15:28 40.27425 -8.35695 30026 ft 450 kts 209°
2026-04-28 15:28 40.24699 -8.37711 29103 ft 452 kts 209°
2026-04-28 15:28 40.21966 -8.39732 28452 ft 447 kts 209°
2026-04-28 15:28 40.19259 -8.41731 27754 ft 445 kts 209°
2026-04-28 15:29 40.16570 -8.43715 27074 ft 446 kts 209°
2026-04-28 15:29 40.13836 -8.45731 26403 ft 456 kts 209°
2026-04-28 15:29 40.11044 -8.47788 25678 ft 462 kts 209°
2026-04-28 15:29 40.08235 -8.49855 25180 ft 459 kts 209°
2026-04-28 15:30 40.05462 -8.51864 25022 ft 455 kts 206°
2026-04-28 15:30 40.02521 -8.53198 24794 ft 453 kts 191°
2026-04-28 15:30 39.99333 -8.53482 24460 ft 456 kts 178°
2026-04-28 15:30 39.96172 -8.53173 24155 ft 456 kts 176°
2026-04-28 15:31 39.93037 -8.52837 23824 ft 457 kts 176°
2026-04-28 15:31 39.89860 -8.52518 23497 ft 458 kts 176°
2026-04-28 15:31 39.86683 -8.52242 23168 ft 457 kts 178°
2026-04-28 15:31 39.83518 -8.51989 22845 ft 455 kts 178°
2026-04-28 15:32 39.80363 -8.51730 22518 ft 452 kts 177°
2026-04-28 15:32 39.78289 -8.51590 22303 ft 450 kts 181°
2026-04-28 15:32 39.74238 -8.52629 21882 ft 443 kts 203°
2026-04-28 15:32 39.72429 -8.53823 21680 ft 441 kts 211°
2026-04-28 15:33 39.69830 -8.55918 21381 ft 438 kts 212°
2026-04-28 15:33 39.67250 -8.58016 21059 ft 436 kts 212°
2026-04-28 15:33 39.64682 -8.60089 20758 ft 431 kts 211°
2026-04-28 15:33 39.62163 -8.62101 20498 ft 417 kts 211°
2026-04-28 15:34 39.59725 -8.64029 20237 ft 404 kts 211°
2026-04-28 15:34 39.57348 -8.65898 19972 ft 393 kts 211°
2026-04-28 15:34 39.55042 -8.67707 19713 ft 383 kts 211°
2026-04-28 15:34 39.52797 -8.69465 19510 ft 368 kts 211°
2026-04-28 15:35 39.50659 -8.71140 19128 ft 355 kts 211°
2026-04-28 15:35 39.46532 -8.74369 18266 ft 337 kts 211°
2026-04-28 15:35 39.44547 -8.75920 17881 ft 328 kts 211°
2026-04-28 15:36 39.42624 -8.77426 17493 ft 319 kts 212°
2026-04-28 15:36 39.41027 -8.79290 17064 ft 314 kts 234°
2026-04-28 15:36 39.40055 -8.81814 16459 ft 317 kts 251°
2026-04-28 15:36 39.39751 -8.84653 15755 ft 323 kts 268°
2026-04-28 15:37 39.39786 -8.87545 15084 ft 321 kts 269°
2026-04-28 15:37 39.39813 -8.90438 14371 ft 324 kts 270°
2026-04-28 15:37 39.39879 -8.93368 13683 ft 326 kts 269°
2026-04-28 15:37 39.39902 -8.96299 12985 ft 327 kts 268°
2026-04-28 15:38 39.39906 -8.99247 12285 ft 328 kts 269°
2026-04-28 15:38 39.39876 -9.02181 11581 ft 325 kts 262°
2026-04-28 15:38 39.39203 -9.04933 10866 ft 323 kts 238°
2026-04-28 15:38 39.37727 -9.07113 10182 ft 324 kts 216°
2026-04-28 15:39 39.35743 -9.08438 9483 ft 323 kts 194°
2026-04-28 15:39 39.33521 -9.08760 8793 ft 321 kts 175°
2026-04-28 15:39 39.31377 -9.08096 8532 ft 313 kts 161°
2026-04-28 15:39 39.29335 -9.07169 8260 ft 308 kts 160°
2026-04-28 15:40 39.27330 -9.06241 8006 ft 303 kts 160°
2026-04-28 15:40 39.25366 -9.05346 7883 ft 294 kts 160°
2026-04-28 15:40 39.23454 -9.04551 7730 ft 286 kts 169°
2026-04-28 15:40 39.21478 -9.04376 7457 ft 283 kts 179°
2026-04-28 15:41 39.19536 -9.04364 7113 ft 283 kts 179°
2026-04-28 15:41 39.17572 -9.04347 6780 ft 282 kts 179°
2026-04-28 15:41 39.15606 -9.04314 6449 ft 282 kts 179°
2026-04-28 15:41 39.13643 -9.04267 6102 ft 283 kts 178°
2026-04-28 15:42 39.11679 -9.04209 5773 ft 282 kts 178°
2026-04-28 15:42 39.09709 -9.04143 5434 ft 282 kts 178°
2026-04-28 15:42 39.07770 -9.04075 5290 ft 274 kts 178°
2026-04-28 15:42 39.05880 -9.04009 5148 ft 267 kts 178°
2026-04-28 15:43 39.04054 -9.03942 5031 ft 259 kts 178°
2026-04-28 15:43 39.02277 -9.03876 4854 ft 254 kts 178°
2026-04-28 15:43 39.00510 -9.03810 4537 ft 255 kts 179°
2026-04-28 15:43 38.98765 -9.03748 4372 ft 241 kts 179°
2026-04-28 15:44 38.97127 -9.03691 4078 ft 232 kts 181°
2026-04-28 15:44 38.95629 -9.04175 3809 ft 218 kts 207°
2026-04-28 15:44 38.94291 -9.04988 3517 ft 207 kts 202°
2026-04-28 15:44 38.92991 -9.05648 3260 ft 194 kts 201°
2026-04-28 15:45 38.91784 -9.06278 2989 ft 179 kts 202°
2026-04-28 15:45 38.90685 -9.06866 2769 ft 167 kts 202°
2026-04-28 15:45 38.89625 -9.07433 2609 ft 163 kts 202°
2026-04-28 15:45 38.88586 -9.07990 2369 ft 157 kts 202°
2026-04-28 15:46 38.87603 -9.08515 2149 ft 150 kts 202°
2026-04-28 15:46 38.86638 -9.09033 1942 ft 149 kts 202°
2026-04-28 15:46 38.85706 -9.09531 1745 ft 145 kts 202°
2026-04-28 15:46 38.84773 -9.10033 1555 ft 150 kts 202°
2026-04-28 15:47 38.83796 -9.10552 1332 ft 153 kts 202°
2026-04-28 15:47 38.82827 -9.11062 1111 ft 147 kts 202°
2026-04-28 15:47 38.81883 -9.11558 869 ft 144 kts 201°
2026-04-28 15:47 38.80966 -9.12073 727 ft 147 kts 203°
2026-04-28 15:48 38.80011 -9.12587 536 ft 150 kts 202°
2026-04-28 15:48 38.79054 -9.13096 379 ft 148 kts 203°
2026-04-28 15:48 38.78190 -9.13558 366 ft 111 kts 202°
2026-04-28 15:48 38.77677 -9.13833 362 ft 53 kts 202°
2026-04-28 15:49 38.77354 -9.13892 356 ft 34 kts 178°
2026-04-28 15:49 38.77250 -9.13889 354 ft 11 kts 181°
2026-04-28 15:49 38.77175 -9.13888 357 ft 11 kts 184°
2026-04-28 15:49 38.77094 -9.13897 351 ft 13 kts 174°
2026-04-28 15:50 38.77000 -9.13871 352 ft 16 kts 167°
2026-04-28 15:50 38.76873 -9.13837 348 ft 19 kts 169°
2026-04-28 15:50 38.76743 -9.13801 344 ft 18 kts 168°
2026-04-28 15:50 38.76663 -9.13780 348 ft 11 kts 168°
2026-04-28 15:51 38.76601 -9.13819 354 ft 11 kts 245°
2026-04-28 15:51 38.76581 -9.13907 351 ft 10 kts 236°
2026-04-28 15:51 38.76534 -9.13921 352 ft 6 kts 155°
2026-04-28 15:51 38.76497 -9.13894 346 ft 6 kts 161°
2026-04-28 15:52 38.76461 -9.13883 348 ft 2 kts 168°
2026-04-28 15:52 38.76452 -9.13881 346 ft 0 kts 168°